FW0041 Weather Reports


Display with metric or nautical units.
time (UTC)temp
F
wind
direction
speed
MPH
gust
MPH
rain 1hr
in
rain 24hr
in
rain mn
in
humidity
%
barometer
mb
20260905210017 81 32 2.0 4.0 1.11 1.11 1.12 76 1012.3
20260905204546 86 59 4.0 13.0 0.98 0.98 0.98 65 1012.4
20260905203003 96 141 0.0 4.0 0.03 0.03 0.07 55 1012.4
20260905201551 98 162 1.0 3.0 0.00 0.00 0.00 46 1012.0
20260905200004 98 192 3.0 6.0 0.00 0.00 0.00 45 1012.1
20260905194531 97 190 2.0 6.0 0.00 0.00 0.00 46 1012.1
20260905193053 96 197 2.0 5.0 0.00 0.00 0.00 51 1012.3
20260905191524 93 191 1.0 7.0 0.00 0.00 0.00 57 1012.7
20260905190036 91 186 0.0 2.0 0.00 0.00 0.00 59 1012.8
20260905184606 91 190 0.0 1.0 0.00 0.00 0.00 59 1012.9
20260905183041 91 190 0.0 3.0 0.00 0.00 0.00 59 1013.1
20260905181553 91 189 0.0 5.0 0.00 0.00 0.00 59 1013.2
20260905180020 90 186 0.0 5.0 0.00 0.00 0.00 61 1013.4
20260905174545 89 186 0.0 3.0 0.00 0.00 0.00 61 1013.8
20260905173020 90 187 1.0 3.0 0.00 0.00 0.00 61 1014.1
20260905171548 89 149 1.0 3.0 0.00 0.00 0.00 65 1014.3
20260905170012 89 71 0.0 2.0 0.00 0.00 0.00 65 1014.5
20260905164537 89 71 0.0 3.0 0.00 0.00 0.00 66 1014.6
20260905163059 89 72 1.0 3.0 0.00 0.00 0.00 66 1014.5
20260905163002 89 72 1.0 3.0 0.00 0.00 0.00 67 1014.6
20260905161526 87 74 2.0 4.0 0.00 0.00 0.00 71 1014.6
20260905160049 85 187 1.0 3.0 0.00 0.00 0.00 78 1014.6
20260905154513 82 181 1.0 5.0 0.00 0.00 0.00 85 1014.7
20260905153041 81 312 1.0 3.0 0.00 0.00 0.00 87 1014.8
20260905151503 81 312 1.0 4.0 0.00 0.00 0.00 88 1014.6
20260905150029 81 303 0.0 4.0 0.00 0.00 0.00 88 1014.7
20260905144600 80 178 0.0 3.0 0.00 0.00 0.00 88 1014.5
20260905143021 80 177 0.0 2.0 0.00 0.00 0.00 88 1014.6
20260905141547 79 177 2.0 5.0 0.00 0.00 0.00 88 1014.6
20260905140011 79 177 0.0 0.0 0.00 0.00 0.00 88 1014.6
20260905134546 78 177 0.0 2.0 0.00 0.00 0.00 88 1014.5
20260905133058 78 177 0.0 1.0 0.00 0.00 0.00 88 1014.5
20260905131530 77 177 0.0 0.0 0.00 0.00 0.00 88 1014.4
20260905130059 77 177 0.0 0.0 0.00 0.00 0.00 88 1014.3
20260905130005 76 177 0.0 0.0 0.00 0.00 0.00 88 1014.3
20260905124528 76 177 0.0 0.0 0.00 0.00 0.00 88 1014.2
20260905123104 76 177 0.0 0.0 0.00 0.00 0.00 88 1014.0
20260905121516 76 177 0.0 0.0 0.00 0.00 0.00 88 1013.8
20260905120046 76 177 0.0 0.0 0.00 0.00 0.00 88 1013.5
20260905114512 77 177 0.0 0.0 0.00 0.00 0.00 88 1013.4
20260905113043 77 177 0.0 0.0 0.00 0.00 0.00 88 1013.3
20260905111504 77 177 0.0 0.0 0.00 0.00 0.00 88 1013.2
20260905110033 77 177 0.0 0.0 0.00 0.00 0.00 88 1013.0
20260905104506 77 177 0.0 0.0 0.00 0.00 0.00 88 1013.0
20260905103033 77 177 0.0 0.0 0.00 0.00 0.00 87 1012.9
20260905101546 77 177 0.0 1.0 0.00 0.00 0.00 87 1012.9
20260905100015 77 177 0.0 0.0 0.00 0.00 0.00 87 1012.9
20260905094547 77 177 0.0 0.0 0.00 0.00 0.00 87 1012.9
20260905093012 77 177 0.0 0.0 0.00 0.00 0.00 87 1012.9
20260905091540 77 177 0.0 0.0 0.00 0.00 0.00 87 1013.0
20260905090004 78 177 0.0 0.0 0.00 0.00 0.00 87 1012.9
20260905084530 78 177 0.0 0.0 0.00 0.00 0.00 86 1012.9
20260905083006 78 177 0.0 0.0 0.00 0.00 0.00 86 1012.9
20260905081531 78 177 0.0 0.0 0.00 0.00 0.00 86 1012.9
20260905080054 78 177 0.0 0.0 0.00 0.00 0.00 86 1012.9
20260905074526 78 177 0.0 0.0 0.00 0.00 0.00 85 1013.0
20260905073056 78 177 0.0 0.0 0.00 0.00 0.00 85 1012.9
20260905073008 78 177 0.0 0.0 0.00 0.00 0.00 85 1013.0
20260905071525 78 177 0.0 0.0 0.00 0.00 0.00 85 1013.2
20260905070002 79 177 0.0 0.0 0.00 0.00 0.00 85 1013.3
20260905064531 79 177 0.0 0.0 0.00 0.00 0.00 84 1013.5
20260905063051 79 177 0.0 1.0 0.00 0.00 0.00 84 1013.4
20260905061528 79 177 0.0 0.0 0.00 0.00 0.00 84 1013.4
20260905060046 79 177 0.0 0.0 0.00 0.00 0.00 84 1013.4
20260905054504 80 177 0.0 0.0 0.00 0.00 0.00 84 1013.4
20260905053031 80 177 0.0 0.0 0.00 0.00 0.00 83 1013.6
20260905051548 80 177 0.0 0.0 0.00 0.00 0.00 83 1013.3
20260905050113 81 177 0.0 0.0 0.00 0.00 0.00 82 1013.4
20260905044512 81 177 0.0 1.0 0.00 0.00 0.00 82 1013.4
20260905043043 81 176 0.0 0.0 0.00 0.00 0.00 81 1013.4
20260905041512 81 176 0.0 0.0 0.00 0.00 0.00 81 1013.4
20260905040040 82 176 0.0 0.0 0.00 0.00 0.00 81 1013.5
20260905034508 82 176 0.0 0.0 0.00 0.00 0.00 81 1013.7
20260905033034 82 176 0.0 2.0 0.00 0.00 0.00 79 1013.6
20260905031600 83 176 0.0 0.0 0.00 0.00 0.00 79 1013.8
20260905030032 83 176 0.0 2.0 0.00 0.00 0.00 77 1013.7
20260905024554 84 176 0.0 0.0 0.00 0.00 0.00 76 1013.8
20260905023033 84 176 0.0 1.0 0.00 0.00 0.00 75 1013.7
20260905021601 85 176 0.0 1.0 0.00 0.00 0.00 75 1013.6
20260905021507 85 176 0.0 1.0 0.00 0.00 0.00 75 1013.5
20260905020024 85 176 0.0 0.0 0.00 0.00 0.00 74 1013.3
20260905014551 86 176 0.0 1.0 0.00 0.00 0.00 73 1013.1
20260905013016 87 176 0.0 1.0 0.00 0.00 0.00 72 1012.9
20260905011542 87 176 0.0 1.0 0.00 0.00 0.00 70 1012.8
20260905010014 88 176 0.0 2.0 0.00 0.00 0.00 68 1012.7
20260905004615 89 176 0.0 1.0 0.00 0.00 0.00 66 1012.5
20260905003014 90 176 0.0 1.0 0.00 0.00 0.00 63 1012.3
20260905001551 92 176 0.0 2.0 0.00 0.00 0.00 61 1012.4
20260905000014 93 176 1.0 2.0 0.00 0.00 0.00 59 1012.4
20260904234548 95 176 0.0 3.0 0.00 0.00 0.00 57 1012.5
20260904233020 96 190 2.0 3.0 0.00 0.00 0.00 54 1012.3
20260904231542 96 208 1.0 7.0 0.00 0.00 0.00 51 1012.5
20260904230014 97 219 4.0 7.0 0.00 0.00 0.00 49 1012.4
20260904224540 97 173 1.0 5.0 0.00 0.00 0.00 49 1012.3
20260904223014 96 213 1.0 6.0 0.00 0.00 0.00 49 1012.5
20260904221534 96 201 0.0 4.0 0.00 0.00 0.00 50 1012.4
20260904220002 96 190 2.0 5.0 0.00 0.00 0.00 51 1012.7
20260904214521 95 323 1.0 6.0 0.00 0.00 0.00 52 1012.7
20260904213048 95 244 1.0 5.0 0.00 0.00 0.00 53 1012.8
20260904211510 94 154 1.0 8.0 0.00 0.00 0.00 53 1012.9